INMARSAT 3-F5

Last updated on Sun Apr 12 2026 00:02:50 GMT+0000 (Coordinated Universal Time)

1 25153U 98006B 26101.30559382 -.00000284 00000+0 00000+0 0 9997 2 25153 9.5446 53.9082 0005185 331.6942 229.9409 1.00269983103221
UTC large
Height (km)
Speed (km/s)
/
Latitude / Longitude
Inclination (degrees)
Orbital Period (minutes)
Azimuth
Elevation
Range (km)
Doppler Factor

Next 0 passes for location: London (51.5072 / 0.1276)

Sorry there are no passes over London.
INMARSAT 3-F5